Eau Claire, WI

9:41 PM CDT on September 20, 2017 (GMT -0500)
Chippewa Valley Regional

Weather History for KEAU - December, 2012

Change the Weather History Date:

Sunday, December 23, 2012

  Actual Average Record
Temperature  
Mean Temperature 16 °F 16 °F  
Max Temperature 21 °F 25 °F 45 °F (2005)
Min Temperature 11 °F 8 °F -27 °F (1983)
Degree Days  
Heating Degree Days 49 48  
Month to date heating degree days 879 1036  
Since 1 July heating degree days 2600 2782  
Cooling Degree Days 0 0  
Month to date cooling degree days 0 0  
Year to date cooling degree days 830 579  
Moisture  
Dew Point 10 °F    
Average Humidity 76    
Maximum Humidity 84    
Minimum Humidity 67    
Precipitation  
Precipitation 0.00 in 0.03 in 0.79 in (2015)
Month to date precipitation 1.78 0.79  
Year to date precipitation 24.19 30.77  
Snow  
Snow 0.00 in 0.30 in 8.30 in (1996)
Month to date snowfall 19.4 7.0  
Since 1 July snowfall 20.3 13.3  
Snow Depth 5.00 in    
Sea Level Pressure  
Sea Level Pressure 30.08 in    
Wind  
Wind Speed 5 mph (North)    
Max Wind Speed 13 mph    
Max Gust Speed 17 mph    
Visibility 10 miles    
Events      
T = Trace of Precipitation, MM = Missing Value Source: NWS Daily Summary

Daily Weather History Graph

Daily Weather History Graph

Search for Another Location

Airport or City:

Trip Planner

Search our weather history database for the weather conditions in past years. The results will help you decide how hot, cold, wet, or windy it might be!

Date:

Astronomy

Dec. 23, 2012 Rise Set
Actual Time 7:41 AM CST 4:28 PM CST
Civil Twilight 7:08 AM CST 5:02 PM CST
Nautical Twilight 6:30 AM CST 5:39 PM CST
Astronomical Twilight 5:55 AM CST 6:15 PM CST
Moon 1:24 PM CST (12/23) 3:18 AM CST (12/23)
Length of Visible Light 9h 54m
Length of Day
8h 47m
Waxing Gibbous, 82% of the Moon is Illuminated
Dec 23
Waxing Gibbous
Dec 28
Full
Jan 4
Last Quarter
Jan 11
New
Jan 18
First Quarter

Hourly Weather History & Observations

Time (CST) Temp. Windchill Dew Point Humidity Pressure Visibility Wind Dir Wind Speed Gust Speed Precip Events Conditions
12:56 AM 15.1 °F 4.2 °F 10.0 °F 80% 30.04 in 10.0 mi North 8.1 mph - N/A   Clear
1:07 AM 15.8 °F 5.1 °F 10.4 °F 79% 29.99 in 10.0 mi North 8.1 mph - N/A   Scattered Clouds
1:17 AM 15.8 °F 6.1 °F 10.4 °F 79% 30.00 in 10.0 mi North 6.9 mph - N/A   Mostly Cloudy
1:56 AM 17.1 °F 5.8 °F 12.9 °F 84% 30.05 in 10.0 mi North 9.2 mph - N/A   Overcast
2:56 AM 18.0 °F 8.7 °F 14.0 °F 84% 30.06 in 10.0 mi North 6.9 mph - N/A   Overcast
3:27 AM 17.6 °F 8.2 °F 12.2 °F 79% 30.02 in 10.0 mi North 6.9 mph - N/A   Overcast
3:56 AM 18.0 °F 7.7 °F 12.9 °F 81% 30.06 in 10.0 mi North 8.1 mph - N/A   Overcast
4:56 AM 17.1 °F 5.0 °F 12.0 °F 81% 30.09 in 10.0 mi NNE 10.4 mph - N/A   Overcast
5:56 AM 16.0 °F 2.3 °F 10.0 °F 77% 30.12 in 10.0 mi North 12.7 mph - N/A   Overcast
6:08 AM 15.8 °F 3.4 °F 8.6 °F 73% 30.06 in 10.0 mi North 10.4 mph - N/A   Overcast
6:56 AM 16.0 °F 7.4 °F 9.0 °F 74% 30.13 in 10.0 mi North 5.8 mph - N/A   Overcast
7:56 AM 16.0 °F 5.3 °F 9.0 °F 74% 30.13 in 10.0 mi NNE 8.1 mph - N/A   Overcast
8:56 AM 17.1 °F 7.6 °F 10.0 °F 74% 30.13 in 10.0 mi NNE 6.9 mph - N/A   Overcast
9:56 AM 18.0 °F 9.8 °F 10.9 °F 74% 30.14 in 10.0 mi NNE 5.8 mph - N/A   Overcast
10:56 AM 18.0 °F 11.1 °F 10.9 °F 74% 30.15 in 10.0 mi North 4.6 mph - N/A   Overcast
11:56 AM 19.0 °F 12.3 °F 10.9 °F 71% 30.13 in 10.0 mi North 4.6 mph - N/A   Overcast
12:28 PM 19.4 °F 10.4 °F 10.4 °F 68% 30.06 in 10.0 mi North 6.9 mph - N/A   Scattered Clouds
12:56 PM 19.0 °F 10.0 °F 10.0 °F 68% 30.10 in 10.0 mi North 6.9 mph - N/A   Clear
1:56 PM 19.9 °F 13.4 °F 10.0 °F 65% 30.09 in 10.0 mi North 4.6 mph - N/A   Clear
2:56 PM 19.9 °F - 10.0 °F 65% 30.09 in 10.0 mi Calm Calm - N/A   Scattered Clouds
3:56 PM 19.9 °F - 10.0 °F 65% 30.11 in 10.0 mi Calm Calm - N/A   Clear
4:56 PM 18.0 °F - 9.0 °F 68% 30.11 in 10.0 mi Calm Calm - N/A   Clear
5:56 PM 17.1 °F - 9.0 °F 71% 30.10 in 10.0 mi Calm Calm - N/A   Clear
6:56 PM 17.1 °F 11.7 °F 9.0 °F 71% 30.11 in 10.0 mi NW 3.5 mph - N/A   Clear
7:56 PM 16.0 °F - 8.1 °F 71% 30.09 in 10.0 mi Calm Calm - N/A   Clear
8:56 PM 15.1 °F - 8.1 °F 74% 30.08 in 10.0 mi Calm Calm - N/A   Clear
9:56 PM 12.0 °F 5.9 °F 7.0 °F 80% 30.06 in 10.0 mi ENE 3.5 mph - N/A   Clear
10:56 PM 12.9 °F - 8.1 °F 81% 30.06 in 10.0 mi Calm Calm - N/A   Clear
11:56 PM 12.0 °F - 8.1 °F 84% 30.05 in 10.0 mi Calm Calm - N/A   Clear